Zurück zum Katalog

STARLINK-34349

AktivKommunikationVLEO
NORAD 64215·PAYLOAD·🇺🇸 United States

Gestartet May 31, 2025 von Vandenberg Space Force Base

Loading…

Nächste Überflüge (nächste 24 Stunden)

TLE

AktuellSource: CelesTrak SupGP

Epoche: Sep 15, 2026, 04:01 UTC

1 64215C 25117N   26258.16784722 -.00047273  00000+0 -13968-2 0  2585
2 64215  53.1578 236.3699 0001573  86.4670 132.9532 15.34412073    10

Verfolge STARLINK-34349 in Echtzeit mit AllMySat

Download on the App Store